[[[{"header":{"parameterUnit":"kt","parameterCategory":2,"dx":1,"dy":1,"la1":30.253999710083008,"la2":30.299108505249023,"lo1":-89.0895004272461,"lo2":-89.04439544677734,"nx":28,"ny":28,"refTime":"2022-09-27T15:00:00:Z","depth":0,"parameterNumber":1,"parameterNumberName":"U-component_of_WINDS"},"data":[-6.8212,-6.8426,-6.8396,-6.8626,-6.8637,-6.8789,-6.8834,-6.8888,-6.8923,-6.9101,-6.9197,-6.9188,-6.9211,-6.9318,-6.9421,-6.9415,-6.9463,-6.956,-6.9537,-6.9127,-6.9069,-6.9013,-6.8963,-6.9569,-6.957,-6.9968,-6.9972,-6.9975,-6.7913,-6.7927,-6.8039,-6.8128,-6.8224,-6.8111,-6.8172,-6.826,-6.8399,-6.8444,-6.8537,-6.869,-6.8808,-6.8797,-6.8905,-6.9005,-6.896,-6.9036,-6.9032,-6.9038,-6.8597,-6.8544,-6.9071,-6.9071,-6.9071,-6.9071,-6.9071,-6.9071,-6.7361,-6.749,-6.7526,-6.7648,-6.7683,-6.7743,-6.7861,-6.7846,-6.7956,-6.8065,-6.8006,-6.8163,-6.8202,-6.8316,-6.8347,-6.8468,-6.8378,-6.8454,-6.8474,-6.8496,-6.8526,-6.7963,-6.8484,-6.8482,-6.8481,-6.848,-6.8478,0,-6.6949,-6.6915,-6.7021,-6.7118,-6.7204,-6.7277,-6.7338,-6.7409,-6.7326,-6.742,-6.7554,-6.7626,-6.7767,-6.789,-6.7984,-6.8,-6.7898,-6.7881,-6.7934,-6.797,-6.7989,-6.7987,-6.7275,-6.7868,-6.7863,-6.7859,-6.7856,-6.7854,-6.6396,-6.6549,-6.6571,-6.6649,-6.6675,-6.6802,-6.6872,-6.6786,-6.6865,-6.6927,-6.7045,-6.7166,-6.7259,-6.7478,-6.7461,-6.7567,-6.752,-6.775,-6.7536,-6.7561,-6.753,-6.7525,-6.7541,-6.7797,-6.7804,-6.781,-6.7815,0,-6.6088,-6.6037,-6.6264,-6.627,-6.6276,-6.6442,-6.6447,-6.6572,-6.6544,-6.6713,-6.6747,-6.6705,-6.6838,-6.6782,-6.6923,-6.689,-6.7164,-6.7111,-6.715,-6.7139,-6.7344,-6.7328,-6.8009,-6.8095,-6.7458,-6.7464,-6.747,0,-6.5599,-6.5803,-6.5715,-6.585,-6.6073,-6.5982,-6.6206,-6.6204,-6.6236,-6.6368,-6.6238,-6.6365,-6.6274,-6.6393,-6.6345,-6.6557,-6.6582,-6.6572,-6.6559,-6.6588,-6.6591,-6.6635,-6.6608,-6.6514,-6.6511,-6.6508,-6.6505,0,-6.5128,-6.5318,-6.5535,-6.557,-6.5599,-6.5703,-6.572,-6.5754,-6.5824,-6.5904,-6.5949,-6.6049,-6.6106,-6.6186,-6.6125,-6.5982,-6.6382,-6.6172,-6.6372,-6.6375,-6.647,-6.6467,-6.7076,-6.6501,-6.65,-6.6499,-6.6497,0,-6.4727,-6.481,-6.5131,-6.5152,-6.5206,-6.5348,-6.5441,-6.555,-6.5596,-6.5575,-6.5638,-6.5547,-6.5725,-6.5522,-6.5767,-6.5598,-6.5662,-6.5666,-6.568,-6.5699,-6.5475,-6.5834,-6.6415,-6.6477,-6.5707,-6.5701,-6.5695,0,-6.4205,-6.4514,-6.4439,-6.4746,-6.4882,-6.4729,-6.4885,-6.4929,-6.4914,-6.5027,-6.5009,-6.514,-6.4976,-6.501,-6.5137,-6.5127,-6.5345,-6.5094,-6.5265,-6.5272,-6.5263,-6.5795,-6.5899,-6.6292,-6.5609,-6.5618,-6.5625,0,-6.3794,-6.3826,-6.3886,-6.3924,-6.3967,-6.408,-6.4259,-6.4368,-6.4448,-6.451,-6.4661,-6.484,-6.4725,-6.4783,-6.472,-6.4856,-6.5194,-6.4715,-6.4715,-6.4808,-6.556,-6.5658,-6.5725,-6.5122,-6.5132,-6.514,-6.5557,0,-6.321,-6.3357,-6.3515,-6.3602,-6.368,-6.3868,-6.3809,-6.3898,-6.3829,-6.3809,-6.4027,-6.405,-6.4163,-6.4221,-6.4156,-6.4484,-6.4422,-6.4299,-6.4103,-6.445,-6.4587,-6.4642,-6.3904,-6.3898,-6.3892,-6.3888,0,0,-6.2726,-6.2936,-6.2848,-6.3019,-6.3079,-6.2919,-6.3126,-6.3166,-6.3253,-6.3299,-6.3187,-6.3446,-6.3472,-6.3743,-6.3846,-6.3891,-6.3946,-6.3827,-6.4284,-6.4328,-6.4369,-6.4516,-6.4574,-6.3879,-6.3877,-6.3875,-6.3874,0,-6.2502,-6.2526,-6.2731,-6.2768,-6.282,-6.2788,-6.2837,-6.2862,-6.2859,-6.307,-6.2938,-6.3061,-6.3271,-6.3316,-6.3367,-6.379,-6.3687,-6.3828,-6.4077,-6.4233,-6.4285,-6.433,-6.4485,-6.4541,-6.3861,-6.3862,-6.3862,0,-6.2091,-6.2108,-6.2199,-6.2327,-6.2361,-6.2504,-6.2281,-6.2442,-6.2548,-6.2368,-6.2581,-6.2587,-6.2642,-6.2904,-6.302,-6.2923,-6.3455,-6.3275,-6.3306,-6.332,-6.3469,-6.353,-6.3585,-6.2864,-6.286,-6.2858,0,0,-6.1906,-6.2042,-6.2034,-6.2275,-6.2305,-6.2261,-6.2331,-6.2271,-6.2322,-6.2343,-6.235,-6.2405,-6.2525,-6.2607,-6.2718,-6.3013,-6.302,-6.3155,-6.3202,-6.3241,-6.3276,-6.3434,-6.3495,-6.2845,-6.2845,-6.2845,0,0,-6.1819,-6.1819,-6.174,-6.2012,-6.2064,-6.2075,-6.2225,-6.213,-6.2223,-6.2196,-6.2103,-6.2113,-6.2357,-6.2369,-6.2212,-6.2648,-6.2454,-6.249,-6.2632,-6.2691,-6.2737,-6.2732,-6.1992,0,0,0,0,0,-6.1561,-6.1818,-6.1747,-6.1783,-6.1946,-6.2114,-6.2134,-6.2062,-6.1926,-6.2047,-6.2037,-6.1919,-6.2265,-6.2124,-6.2163,-6.2341,-6.2688,-6.2716,-6.2742,-6.2995,-6.3056,-6.3109,0,0,0,0,0,0,-6.1574,-6.162,-6.174,-6.1762,-6.1798,-6.2104,-6.1858,-6.1845,-6.1911,-6.1886,-6.1925,-6.192,-6.1863,-6.2099,-6.2135,-6.2306,-6.1979,-6.2699,-6.2722,-6.2744,-6.3016,-6.3066,-6.311,0,0,0,0,0,-6.1585,-6.1621,-6.1901,-6.1758,-6.1789,-6.1755,-6.1847,-6.1835,-6.1885,-6.1871,-6.1862,-6.1825,-6.187,-6.1896,-6.212,-6.2292,-6.1954,-6.1967,-6.2714,-6.2733,-6.275,-6.3041,0,0,0,0,0,0,-6.1593,-6.1612,-6.1905,-6.1912,-6.1655,-6.1736,-6.1746,-6.1827,-6.1864,-6.1859,-6.1766,-6.1745,-6.1878,-6.1896,-6.1917,-6.2291,-6.1933,-6.1947,-6.1955,-6.2728,-6.2743,-6.2756,0,0,0,0,0,0,-6.1591,-6.1619,-6.1909,-6.1783,-6.1775,-6.172,-6.1729,-6.1909,-6.1867,-6.1756,-6.174,-6.1756,-6.1848,-6.1898,-6.1913,-6.2198,-6.1917,-6.193,-6.1939,-6.1945,-6.274,-6.2752,0,0,0,0,0,0,-6.1602,-6.1625,-6.1781,-6.1775,-6.1767,-6.1838,-6.1877,-6.2049,-6.1758,-6.1757,-6.173,-6.1717,-6.1854,-6.1867,-6.1912,-6.2191,-6.2196,-6.1917,-6.1926,-6.1933,-6.1937,0,0,0,0,0,0,0,-6.161,-6.1471,-6.1865,-6.1768,-6.176,-6.1975,-6.1977,-6.1979,-6.1755,-6.1744,-6.1733,-6.1722,-6.184,-6.1855,-6.187,-6.2185,0,0,-6.1916,-6.1922,0,0,0,0,0,0,0,0,-6.1459,-6.1468,-6.1865,-6.1866,-6.1868,-6.1976,-6.1977,-6.1979,-6.1753,-6.1744,-6.1735,-6.1726,-6.1844,-6.1856,-6.1868,0,0,0,0,0,0,0,0,0,0,0,0,0,0,0,-6.1865,-6.1866,0,-6.1976,-6.1977,-6.1978,-6.1752,-6.1744,-6.1737,-6.173,-6.1848,-6.1857,-6.1867,0,0,0,0,0,0,0,0,0,0,0,0,0,0,0,0,0,0,0,0,0,0,0,0,0,0,0,0,0,0,0,0,0,0,0,0,0,0,0,0,0,0,0,0,0,0,0,0,0,0,0,0,0,0,0,0,0,0,0,0,0,0,0,0,0,0,0,0,0]}],[{"header":{"parameterUnit":"kt","parameterCategory":2,"dx":1,"dy":1,"la1":30.253999710083008,"la2":30.299108505249023,"lo1":-89.0895004272461,"lo2":-89.04439544677734,"nx":28,"ny":28,"refTime":"2022-09-27T15:00:00:Z","depth":0,"parameterNumber":2,"parameterNumberName":"V-component_of_WINDS"},"data":[-13.6632,-13.6883,-13.6879,-13.7161,-13.7205,-13.7395,-13.7461,-13.7545,-13.7609,-13.7831,-13.7957,-13.7974,-13.8032,-13.8177,-13.8309,-13.8312,-13.8368,-13.846,-13.8448,-13.8046,-13.799,-13.7936,-13.7877,-13.8473,-13.8474,-13.8865,-13.8869,-13.8871,-13.6335,-13.6382,-13.6532,-13.6673,-13.6799,-13.6708,-13.6811,-13.6921,-13.7092,-13.7173,-13.7297,-13.749,-13.764,-13.7667,-13.7809,-13.792,-13.7883,-13.7959,-13.7949,-13.7959,-13.753,-13.7468,-13.7986,-13.7986,-13.7986,-13.7986,-13.7986,-13.7986,-13.5793,-13.5944,-13.6028,-13.6189,-13.6258,-13.6351,-13.6492,-13.6512,-13.6654,-13.6806,-13.677,-13.6961,-13.7038,-13.7204,-13.7257,-13.7403,-13.7317,-13.7396,-13.7416,-13.7436,-13.746,-13.6894,-13.7426,-13.7425,-13.7423,-13.7422,-13.7421,0,-13.5394,-13.5381,-13.5524,-13.5666,-13.5783,-13.5891,-13.5988,-13.6075,-13.6039,-13.6158,-13.6328,-13.6424,-13.6612,-13.6768,-13.6898,-13.6936,-13.6849,-13.6839,-13.6894,-13.6914,-13.6916,-13.6916,-13.6214,-13.6823,-13.6818,-13.6814,-13.6812,-13.681,-13.4845,-13.5023,-13.5107,-13.5208,-13.5261,-13.5424,-13.5518,-13.5474,-13.5576,-13.5686,-13.5819,-13.5975,-13.6099,-13.6368,-13.6383,-13.6521,-13.6479,-13.6713,-13.6499,-13.6512,-13.6481,-13.6471,-13.6487,-13.6755,-13.6762,-13.6767,-13.6772,0,-13.4536,-13.4529,-13.4801,-13.4866,-13.4887,-13.5074,-13.5127,-13.5273,-13.5275,-13.5476,-13.552,-13.5521,-13.5687,-13.5664,-13.5847,-13.5829,-13.6128,-13.6084,-13.6101,-13.609,-13.6295,-13.6276,-13.6969,-13.7057,-13.644,-13.6446,-13.6451,0,-13.4064,-13.4298,-13.4272,-13.443,-13.4687,-13.4637,-13.4891,-13.4917,-13.4984,-13.5142,-13.5041,-13.5191,-13.5138,-13.5283,-13.5258,-13.5497,-13.5532,-13.5532,-13.5522,-13.5541,-13.5541,-13.5591,-13.5561,-13.5495,-13.5491,-13.5488,-13.5485,0,-13.358,-13.384,-13.4098,-13.4155,-13.4247,-13.4368,-13.4411,-13.4486,-13.4578,-13.4694,-13.4753,-13.489,-13.4966,-13.5072,-13.5038,-13.4894,-13.5331,-13.5126,-13.533,-13.5332,-13.5427,-13.5422,-13.6043,-13.5481,-13.548,-13.5479,-13.5478,0,-13.3196,-13.332,-13.3696,-13.3769,-13.3839,-13.4008,-13.4141,-13.4281,-13.4366,-13.4362,-13.4452,-13.4381,-13.4591,-13.4389,-13.4675,-13.4497,-13.4575,-13.4595,-13.4609,-13.4625,-13.4399,-13.475,-13.5346,-13.5406,-13.464,-13.4634,-13.4627,0,-13.2643,-13.3021,-13.2981,-13.3338,-13.3509,-13.3385,-13.357,-13.365,-13.366,-13.3802,-13.3811,-13.3973,-13.3818,-13.3865,-13.4011,-13.4025,-13.4256,-13.3993,-13.4192,-13.42,-13.4173,-13.4721,-13.4815,-13.5218,-13.4538,-13.4547,-13.4554,0,-13.2214,-13.2327,-13.2394,-13.2456,-13.2557,-13.2699,-13.2913,-13.3065,-13.3162,-13.3263,-13.3438,-13.3666,-13.3557,-13.3637,-13.3593,-13.3746,-13.4098,-13.3608,-13.3609,-13.3695,-13.4491,-13.4579,-13.4647,-13.4034,-13.4045,-13.4053,-13.4483,0,-13.1633,-13.1821,-13.2002,-13.2146,-13.2252,-13.2475,-13.2454,-13.2568,-13.2516,-13.2521,-13.2779,-13.2838,-13.2989,-13.306,-13.3011,-13.3368,-13.3304,-13.3186,-13.2986,-13.3347,-13.3487,-13.3545,-13.2778,-13.2772,-13.2767,-13.2763,0,0,-13.1105,-13.1374,-13.1324,-13.1532,-13.1619,-13.1487,-13.1726,-13.1794,-13.1935,-13.1996,-13.1885,-13.2216,-13.2268,-13.2583,-13.2694,-13.2756,-13.2816,-13.2691,-13.3176,-13.3222,-13.3264,-13.3416,-13.3476,-13.2754,-13.2752,-13.275,-13.2749,0,-13.0888,-13.0952,-13.1192,-13.1261,-13.1362,-13.1357,-13.1414,-13.1489,-13.1504,-13.1758,-13.1642,-13.1794,-13.2061,-13.213,-13.22,-13.2653,-13.2556,-13.2701,-13.2952,-13.3125,-13.3178,-13.3225,-13.3384,-13.3443,-13.2736,-13.2737,-13.2738,0,-13.046,-13.0518,-13.0632,-13.0826,-13.089,-13.1069,-13.0855,-13.1054,-13.1184,-13.1025,-13.128,-13.1309,-13.14,-13.1702,-13.1836,-13.1738,-13.232,-13.2133,-13.2164,-13.2178,-13.2344,-13.2408,-13.2464,-13.1717,-13.1713,-13.171,0,0,-13.0275,-13.0451,-13.0498,-13.0778,-13.0827,-13.0823,-13.0915,-13.0873,-13.0961,-13.0997,-13.1032,-13.1119,-13.1272,-13.1375,-13.1517,-13.1853,-13.1866,-13.2008,-13.2056,-13.2096,-13.2131,-13.2307,-13.2371,-13.1697,-13.1697,-13.1697,0,0,-13.0186,-13.0253,-13.0186,-13.051,-13.0599,-13.0661,-13.0832,-13.075,-13.0878,-13.0849,-13.0784,-13.0804,-13.1086,-13.1119,-13.0948,-13.1445,-13.1248,-13.1288,-13.1413,-13.1474,-13.1521,-13.1506,-13.0734,0,0,0,0,0,-12.9955,-13.0244,-13.0183,-13.0235,-13.0478,-13.0696,-13.0726,-13.0681,-13.0542,-13.0678,-13.0694,-13.0584,-13.1013,-13.086,-13.0909,-13.1101,-13.1529,-13.1559,-13.1587,-13.1828,-13.1891,-13.1944,0,0,0,0,0,0,-12.9974,-13.0038,-13.0175,-13.0251,-13.0305,-13.0685,-13.044,-13.0435,-13.0527,-13.0502,-13.0585,-13.0587,-13.055,-13.0831,-13.0877,-13.1059,-13.0718,-13.1541,-13.1566,-13.1589,-13.1849,-13.1901,-13.1946,0,0,0,0,0,-12.999,-13.0041,-13.0444,-13.0246,-13.0293,-13.0303,-13.0428,-13.0423,-13.0492,-13.0519,-13.0517,-13.0451,-13.0557,-13.0592,-13.0858,-13.104,-13.0686,-13.0704,-13.1558,-13.1578,-13.1595,-13.1875,0,0,0,0,0,0,-13.0001,-13.0036,-13.0452,-13.0464,-13.0134,-13.0281,-13.0303,-13.0413,-13.0501,-13.0503,-13.0379,-13.0359,-13.0565,-13.0591,-13.0619,-13.1036,-13.066,-13.0678,-13.0689,-13.1573,-13.1588,-13.1602,0,0,0,0,0,0,-13.0008,-13.0047,-13.0458,-13.0319,-13.0315,-13.0261,-13.028,-13.0499,-13.0504,-13.0356,-13.0342,-13.0369,-13.0522,-13.0592,-13.0612,-13.0955,-13.064,-13.0657,-13.0669,-13.0676,-13.1585,-13.1598,0,0,0,0,0,0,-13.0023,-13.0057,-13.0315,-13.0313,-13.0308,-13.0444,-13.0452,-13.0703,-13.0389,-13.0354,-13.0359,-13.0345,-13.0526,-13.0546,-13.0609,-13.0944,-13.0952,-13.0641,-13.0652,-13.0661,-13.0666,0,0,0,0,0,0,0,-13.0036,-12.9822,-13.0378,-13.0307,-13.0303,-13.0579,-13.0583,-13.0586,-13.0386,-13.0374,-13.0362,-13.0351,-13.0545,-13.0563,-13.0582,-13.0935,0,0,-13.0639,-13.0647,0,0,0,0,0,0,0,0,-12.9807,-12.9818,-13.0379,-13.0381,-13.0384,-13.058,-13.0583,-13.0585,-13.0384,-13.0374,-13.0365,-13.0356,-13.055,-13.0565,-13.058,0,0,0,0,0,0,0,0,0,0,0,0,0,0,0,-13.0379,-13.0381,0,-13.058,-13.0583,-13.0585,-13.0383,-13.0375,-13.0367,-13.0359,-13.0554,-13.0566,-13.0579,0,0,0,0,0,0,0,0,0,0,0,0,0,0,0,0,0,0,0,0,0,0,0,0,0,0,0,0,0,0,0,0,0,0,0,0,0,0,0,0,0,0,0,0,0,0,0,0,0,0,0,0,0,0,0,0,0,0,0,0,0,0,0,0,0,0,0,0,0]}]]]